Location: Bron Breck
(40.6655°N, 111.8083°W)
Time: 05:49:55
(UTC+00:00)

ISS - Pass Details

Date: 10 March 2021
Orbit: 418 x 422 km, 51.6° (Epoch: 16 April)

Event Time Altitude Azimuth Distance (km) Brightness Sun altitude
Exits shadow 10:57:29 11° 58° (ENE) 1,456 -0.2 -32.1°
Drops below altitude 10° 10:57:38 10° 60° (ENE) 1,497 -0.1 -32.0°
Sets 11:00:17 0° 81° (E) 2,370 1.1 -31.6°
